This demonstration page uses our WeatherBlox Daily Observations layout. Learn more.

Left ArrowRight Arrow

30.21309, -93.2044

Hourly Observations for April 3, 2022

Temp ( °F °C ) Dew Point ( °F °C ) Humidity (%) Winds ( mph kmh ) Pressure ( in mb ) Visibility ( mi km ) Precip ( " mm )
12:15 am 00:15 Clear 62 16.6 60 15.6 94 94 Calm 30.01 1016 10 16 0.00 0.00
12:35 am 00:35 Clear 61 16.2 59 14.8 91 91 Calm 30.01 1016 10 16 0.00 0.00
12:55 am 00:55 Clear 62 16.5 60 15.3 93 93 Calm 30.01 1016 10 16 0.00 0.00
1:15 am 01:15 Clear 61 16.2 59 15.1 93 93 N 3 6 30.00 1016 10 16 0.00 0.00
1:35 am 01:35 Clear 61 16.1 59 15.2 94 94 NNE 5 7 30.00 1016 10 16 0.00 0.00
1:55 am 01:55 Clear 60 15.3 58 14.3 94 94 Calm 30.00 1016 7 11 0.00 0.00
2:15 am 02:15 Clear 60 15.3 58 14.5 95 95 NE 3 6 30.00 1016 7 11 0.00 0.00
2:35 am 02:35 Clear 60 15.7 59 14.9 95 95 Calm 29.99 1016 10 16 0.00 0.00
2:55 am 02:55 Clear with Mist and Fog 58 14.6 57 13.7 94 94 ENE 3 6 29.99 1016 4 6 0.00 0.00
3:15 am 03:15 Mostly Cloudy with Mist and Fog 58 14.3 56 13.5 95 95 NE 3 6 29.99 1016 2 2 0.00 0.00
3:35 am 03:35 Mostly Cloudy with Fog 56 13.3 55 12.6 96 96 ENE 3 6 29.99 1016 0 0 0.00 0.00
3:55 am 03:55 Mostly Cloudy with Fog 56 13.3 55 12.7 96 96 Calm 29.98 1015 1 1 0.00 0.00
4:15 am 04:15 Partly Cloudy with Mist and Fog 56 13.6 55 12.9 96 96 Calm 29.99 1016 7 11 0.00 0.00
4:35 am 04:35 Cloudy with Fog 56 13.5 55 12.9 96 96 Calm 29.99 1016 0 0 0.00 0.00
4:55 am 04:55 Cloudy with Mist and Fog 57 14 56 13.3 96 96 Calm 29.99 1016 1 2 0.00 0.00
5:15 am 05:15 Cloudy with Fog 56 13.6 55 12.9 96 96 Calm 29.99 1016 1 1 0.00 0.00
5:35 am 05:35 Cloudy with Fog 56 13.2 55 12.5 96 96 Calm 30.00 1016 1 1 0.00 0.00
6:00 am 06:00 Cloudy with Mist and Fog 57 14 57 14 100 100 NE 5 7 30.00 1016 1 2 0.00 0.00
6:55 am 06:55 Mostly Cloudy with Fog 57 14 57 14 100 100 Calm 30.01 1016 0 0 0.00 0.00
7:55 am 07:55 Mostly Cloudy with Fog 59 15 57 14 94 94 Calm 30.03 1017 0 0 0.00 0.00
8:49 am 08:49 Mostly Sunny 61 16 61 16 100 100 ENE 5 7 30.04 1017 10 16 0.00 0.00
9:55 am 09:55 Mostly Sunny 68 20 61 16 78 78 ENE 5 7 30.05 1018 10 16 0.00 0.00
10:53 am 10:53 Mostly Sunny 73 23 59 15 61 61 ESE 7 11 30.05 1018 10 16 0.00 0.00
11:48 am 11:48 Mostly Sunny 75 24 55 13 50 50 ENE 8 13 30.04 1017 10 16 0.00 0.00
12:55 pm 12:55 Mostly Sunny 79 26 52 11 39 39 ESE 12 19 30.01 1016 10 16 0.00 0.00
1:49 pm 13:49 Mostly Sunny 79 26 54 12 42 42 ESE 12 19 30.00 1016 10 16 0.00 0.00
2:50 pm 14:50 Mostly Sunny 81 27 52 11 37 37 ESE 10 17 29.97 1015 10 16 0.00 0.00
3:50 pm 15:50 Mostly Sunny 81 27 52 11 37 37 SE 12 19 29.93 1014 10 16 0.00 0.00
4:50 pm 16:50 Mostly Sunny 81 27 50 10 34 34 SE 12 19 29.91 1013 10 16 0.00 0.00
5:50 pm 17:50 Mostly Sunny 81 27 52 11 37 37 S 8 13 29.90 1013 10 16 0.00 0.00
6:45 pm 18:45 Mostly Sunny 75 24 57 14 54 54 S 14 22 29.91 1013 10 16 0.00 0.00
7:45 pm 19:45 Mostly Clear 70 21 57 14 64 64 S 8 13 29.92 1013 10 16 0.00 0.00
8:55 pm 20:55 Mostly Clear 63 17 57 14 83 83 Calm 29.93 1014 10 16 0.00 0.00
9:45 pm 21:45 Mostly Clear 63 17 57 14 83 83 Calm 29.93 1014 10 16 0.00 0.00
10:15 pm 22:15 Clear 60 15.7 58 14.3 91 91 SSE 3 6 29.92 1013 10 16 0.00 0.00
10:35 pm 22:35 Clear 62 16.6 58 14.5 88 88 Calm 29.92 1013 10 16 0.00 0.00
10:55 pm 22:55 Clear 61 16.1 58 14.3 89 89 Calm 29.92 1013 10 16 0.00 0.00
11:15 pm 23:15 Clear 60 15.7 57 13.9 89 89 SSE 5 7 29.91 1013 10 16 0.00 0.00
11:35 pm 23:35 Clear 60 15.6 57 13.8 89 89 SSE 3 6 29.91 1013 10 16 0.00 0.00
11:55 pm 23:55 Clear 60 15.7 57 13.8 89 89 S 3 6 29.91 1013 10 16 0.00 0.00

Powered by AerisWeather